格洛纳斯M-720 COSMOS 2433 [GLONASS-M]

导读

COSMOS 2433(又称格洛纳斯M-720)是独联体(CIS)俄罗斯发射的GLONASS-M系列导航卫星,于2007年10月26日发射入轨,隶属俄罗斯全球卫星导航系统。它运行在中地球轨道,采用三轴稳定设计,可覆盖全球服务,提供高精度定位、导航与授时服务。相比早期GLONASS卫星,该型号寿命更长、精度更高,目前仍在轨工作,是俄罗斯维持导航系统组网能力的重要节点。

基本信息
目录编号:
32275
目录名称:
COSMOS 2433 (GLONASS)
国际标识:
2007-052A
轨道中心:
EARTH
卫星名称:
格洛纳斯M-720
卫星全名:
格洛纳斯M-720 COSMOS 2433 [GLONASS-M]
卫星状态:
在轨 (已飞行6895 天)
发射日期:
2007-10-26 UTC
国别 :
俄罗斯(独联体) (CIS)
星等 :
--
该卫星已列入 空间交会检测服务 Space Conjunction Data Service (SCDS) ,当前飞行风险评估等级: 无高风险
轨道信息
数据来源 国际轨道数据 AOE轨道数据
星历时间 2026-09-11T14:13:05+0800
7小时前
查看轨道信息
2026-09-05T01:00:00+0800
6天前
查看轨道信息
半长轴 25507.865km 25507.825km
偏心率 0.0005393 0.0005025
轨道倾角 65.523° 65.527°
近地点辐角 223.580° 223.753°
升交点赤经 313.034° 313.255°
平近点角 136.456° 150.758°
近地点 19115.971km 19116.87km
远地点 19143.485km 19142.506km
周期 675.726分钟 675.725分钟
每日圈数 2.13104 2.131045
详细信息
平衡模式:
三轴稳定
覆盖范围:
全球
运营商:
列舍特涅夫卫星信息系统
运营商所在国:
俄罗斯
制造商(研发单位):
列舍特涅夫卫星信息系统
制造商所在国:
俄罗斯
使用方式:
暂无
卫星简介
格洛纳斯(GLONASS )是苏联/俄罗斯研制卫星导航系统。标准配置为24颗卫星,其中18颗卫星就能保证该系统为俄罗斯境内用户提供全部服务。该卫星仍在工作。
2D轨道图
3D轨道图
轨道高度分析图
轨道倾角分析图
轨道综合分析图
查看轨道综合分析图
与全量物体交会距离演化趋势
与全量物体交会风险概率演化趋势